Location: Saint-Palais-sur-Mer
(45.6429°N, 1.0859°W)
Time: 23:43:16
(UTC+01:00)

Vanguard 1 - Pass Details

Date: 15 February 2026
Orbit: 653 x 3818 km, 34.2° (Epoch: 12 March)

Event Time Altitude Azimuth Distance (km) Brightness Sun altitude
Rises 22:19:57 0° 277° (W) 6,838 15.2 -39.8°
Reaches altitude 10° 22:24:24 10° 271° (W) 6,152 14.7 -40.5°
Maximum altitude 22:43:05 42° 210° (SSW) 4,748 13.3 -43.3°
Enters shadow 22:48:44 38° 185° (S) 4,950 13.2 -44.1°
